TimeCDT,TemperatureF,Dew PointF,Humidity,Sea Level PressureIn,VisibilityMPH,Wind Direction,Wind SpeedMPH,Gust SpeedMPH,PrecipitationIn,Events,Conditions,WindDirDegrees,DateUTC
1:40 AM,35.6,33.8,93,29.73,8.0,NE,11.5,-,N/A,,Overcast,40,2013-03-16 06:40:00
1:51 AM,35.1,34.0,96,29.73,8.0,NE,11.5,-,N/A,,Overcast,40,2013-03-16 06:51:00
2:51 AM,35.6,33.8,93,29.72,9.0,NNE,10.4,-,N/A,,Overcast,30,2013-03-16 07:51:00
3:51 AM,35.1,34.0,96,29.73,6.0,NNE,6.9,-,N/A,,Overcast,30,2013-03-16 08:51:00
4:16 AM,35.6,33.8,93,29.71,5.0,NE,15.0,-,N/A,,Overcast,40,2013-03-16 09:16:00
4:51 AM,34.0,33.1,96,29.73,5.0,NNE,16.1,-,N/A,,Overcast,30,2013-03-16 09:51:00
5:51 AM,33.1,30.9,92,29.75,10.0,NNE,13.8,21.9,0.00,,Light Drizzle,30,2013-03-16 10:51:00
6:51 AM,32.0,30.9,96,29.78,10.0,NNE,11.5,-,0.00,,Overcast,30,2013-03-16 11:51:00
7:51 AM,32.0,30.2,93,29.80,7.0,NNE,16.1,-,N/A,,Light Drizzle,30,2013-03-16 12:51:00
7:55 AM,32.0,30.2,93,29.80,3.0,NNE,13.8,-,0.00,,Light Drizzle,20,2013-03-16 12:55:00
8:51 AM,30.9,30.0,96,29.85,3.0,NNE,13.8,23.0,0.00,,Freezing Rain,20,2013-03-16 13:51:00
9:51 AM,30.9,28.9,92,29.91,3.0,North,11.5,-,0.00,,Freezing Rain,360,2013-03-16 14:51:00
10:21 AM,30.2,28.4,93,29.89,8.0,North,13.8,-,0.00,,Freezing Rain,360,2013-03-16 15:21:00
10:51 AM,30.9,28.0,89,29.91,4.0,North,13.8,-,0.00,,Overcast,350,2013-03-16 15:51:00
11:10 AM,30.2,28.4,93,29.92,4.0,North,12.7,-,0.00,Snow,Light Snow,360,2013-03-16 16:10:00
11:51 AM,30.9,28.0,89,29.96,6.0,North,12.7,-,0.00,Snow,Light Snow,360,2013-03-16 16:51:00
11:53 AM,30.2,28.4,93,29.94,6.0,North,15.0,-,0.00,Snow,Light Snow,360,2013-03-16 16:53:00
12:26 PM,30.2,28.4,93,29.95,9.0,North,12.7,21.9,0.00,Snow,Light Snow,360,2013-03-16 17:26:00
12:40 PM,30.2,26.6,86,29.96,9.0,North,15.0,-,0.00,Snow,Light Snow,360,2013-03-16 17:40:00
12:51 PM,30.9,27.0,85,29.98,9.0,North,13.8,-,0.00,Snow,Light Snow,360,2013-03-16 17:51:00
1:51 PM,30.9,27.0,85,29.99,9.0,NNE,13.8,24.2,0.00,,Overcast,20,2013-03-16 18:51:00
2:29 PM,30.2,26.6,86,29.97,10.0,NNE,8.1,-,N/A,,Overcast,20,2013-03-16 19:29:00
2:51 PM,30.0,26.1,85,29.99,10.0,North,10.4,19.6,N/A,,Overcast,360,2013-03-16 19:51:00
3:51 PM,32.0,26.1,79,30.02,10.0,NNE,6.9,-,N/A,,Overcast,30,2013-03-16 20:51:00
4:03 PM,32.0,26.6,80,30.00,10.0,NNE,5.8,-,N/A,,Overcast,30,2013-03-16 21:03:00
4:51 PM,30.2,24.8,80,30.01,10.0,NE,6.9,-,N/A,,Overcast,40,2013-03-16 21:51:00
5:51 PM,30.9,25.0,79,30.04,10.0,NE,4.6,-,N/A,,Overcast,50,2013-03-16 22:51:00
6:51 PM,30.0,25.0,82,30.05,10.0,ENE,4.6,-,N/A,,Overcast,60,2013-03-16 23:51:00
7:46 PM,30.2,24.8,80,30.04,10.0,NE,3.5,-,N/A,,Overcast,40,2013-03-17 00:46:00
7:51 PM,30.9,24.1,76,30.06,10.0,NE,3.5,-,N/A,,Overcast,40,2013-03-17 00:51:00
8:51 PM,30.0,25.0,82,30.09,10.0,Calm,Calm,-,N/A,,Overcast,0,2013-03-17 01:51:00
9:51 PM,30.9,21.9,69,30.10,10.0,WNW,6.9,-,N/A,,Overcast,290,2013-03-17 02:51:00
10:51 PM,30.9,21.9,69,30.12,10.0,NW,9.2,-,N/A,,Overcast,320,2013-03-17 03:51:00
11:51 PM,30.0,19.9,66,30.13,10.0,NW,6.9,-,N/A,,Overcast,310,2013-03-17 04:51:00